sat.trackr.live / text

‹ back to catalog

TIANHUI 6A

NORAD 55836 · 2023-030A

PAYLOAD ACTIVE UNKNOWN

§ Identity

Operator
Country
PRC
Launch date
2023-03-09
Launch site
TAISC
Launch vehicle
Mass (kg)
RCS (m²)

External: N2YO · Heavens-Above · Gunter

§ Orbital elements

Epoch: 2026-05-25T03:51:36.055872Z

Period
102.76 min
Inclination
99.0136°
Eccentricity
0.0002281
Mean motion
14.01349931 rev/d
Perigee alt
887.5 km
Apogee alt
890.8 km
Semi-major
7,267.3 km
B*
2.6484e-4
RAAN
153.6749°
Arg perigee
59.7252°
Mean anomaly
300.4138°
Rev number
16,417

§ Raw data

TIANHUI 6A1 55836U 23030A   26145.16083398  .00000355  00000+0  26484-3 0  99902 55836  99.0136 153.6749 0002281  59.7252 300.4138 14.01349931164178

JSON: /api/v1/satellites/55836 · /tle

For live sub-satellite position, see the globe view (requires WebGL).

§ Visibility from observer

Set your observer location to see the next 7 days of passes ≥ 10°. The values pass through the URL so the page stays shareable.

No JS? Fill the form by hand. The geolocation button needs JavaScript.